Hourly Weather Kozyakovo-Chelny

Today, 30 October, Friday

Time Temperature Precipitation Wind Pressure Humidity
00:00 0°C° 0 mm 3 mps 761 mmHg 81%
01:00 0°C° 0 mm 3 mps 761 mmHg 83%
02:00 0°C° 0 mm 3 mps 761 mmHg 85%
03:00 -1°C° 0 mm 3 mps 761 mmHg 86%
04:00 -1°C° 0 mm 3 mps 761 mmHg 86%
05:00 -1°C° 0 mm 3 mps 761 mmHg 86%
06:00 -1°C° 0 mm 3 mps 760 mmHg 85%
07:00 -1°C° 0 mm 4 mps 760 mmHg 81%
08:00 0°C° 0 mm 4 mps 760 mmHg 77%
09:00 +1°C° 0 mm 5 mps 760 mmHg 73%
10:00 +2°C° 0 mm 5 mps 760 mmHg 71%
11:00 +2°C° 0 mm 5 mps 759 mmHg 69%
12:00 +3°C° 0 mm 5 mps 759 mmHg 67%
13:00 +4°C° 0 mm 4 mps 759 mmHg 69%
14:00 +4°C° 0 mm 4 mps 759 mmHg 70%
15:00 +3°C° 0 mm 4 mps 759 mmHg 72%
16:00 +3°C° 0 mm 4 mps 758 mmHg 74%
17:00 +3°C° 0 mm 4 mps 758 mmHg 76%
18:00 +1°C° 0 mm 4 mps 758 mmHg 78%
19:00 +2°C° 0.1 mm 3 mps 757 mmHg 78%
20:00 +3°C° 0.1 mm 3 mps 757 mmHg 78%
21:00 +3°C° 0.1 mm 3 mps 757 mmHg 79%
22:00 +2°C° 0 mm 3 mps 757 mmHg 80%
23:00 +2°C° 0 mm 3 mps 757 mmHg 81%

Tomorrow, 31 October, Saturday

Time Temperature Precipitation Wind Pressure Humidity
00:00 +2°C° 0 mm 3 mps 756 mmHg 82%
01:00 +2°C° 0 mm 3 mps 756 mmHg 82%
02:00 +2°C° 0 mm 3 mps 756 mmHg 82%
03:00 +2°C° 0 mm 3 mps 756 mmHg 82%
04:00 +2°C° 0 mm 3 mps 755 mmHg 82%
05:00 +2°C° 0 mm 3 mps 755 mmHg 83%
06:00 +2°C° 0 mm 3 mps 755 mmHg 83%
07:00 +2°C° 0 mm 3 mps 755 mmHg 82%
08:00 +3°C° 0 mm 3 mps 755 mmHg 82%
09:00 +3°C° 0 mm 3 mps 755 mmHg 81%
10:00 +3°C° 0 mm 3 mps 755 mmHg 83%
11:00 +4°C° 0 mm 4 mps 755 mmHg 85%
12:00 +4°C° 0 mm 4 mps 754 mmHg 86%
13:00 +4°C° 0.3 mm 3 mps 754 mmHg 88%
14:00 +4°C° 0.3 mm 3 mps 754 mmHg 90%
15:00 +3°C° 0.3 mm 3 mps 754 mmHg 92%
16:00 +3°C° 0.4 mm 3 mps 754 mmHg 92%
17:00 +3°C° 0.4 mm 3 mps 754 mmHg 92%
18:00 +4°C° 0.4 mm 2 mps 754 mmHg 92%
19:00 +4°C° 0.2 mm 2 mps 754 mmHg 93%
20:00 +4°C° 0.2 mm 2 mps 754 mmHg 94%
21:00 +4°C° 0.2 mm 2 mps 755 mmHg 95%
22:00 +4°C° 0 mm 2 mps 755 mmHg 95%
23:00 +3°C° 0 mm 3 mps 755 mmHg 95%

Day after tomorrow, 1 November, Sunday

Time Temperature Precipitation Wind Pressure Humidity
00:00 +3°C° 0 mm 3 mps 755 mmHg 95%
01:00 +3°C° 0 mm 3 mps 755 mmHg 94%
02:00 +3°C° 0 mm 3 mps 756 mmHg 93%
03:00 +3°C° 0 mm 3 mps 756 mmHg 92%
04:00 +3°C° 0 mm 4 mps 757 mmHg 92%
05:00 +3°C° 0 mm 4 mps 757 mmHg 92%
06:00 +3°C° 0 mm 4 mps 757 mmHg 92%
07:00 +3°C° 0 mm 4 mps 758 mmHg 90%
08:00 +3°C° 0 mm 4 mps 758 mmHg 87%
09:00 +1°C° 0 mm 4 mps 759 mmHg 85%
10:00 +1°C° 0 mm 4 mps 759 mmHg 83%
11:00 +1°C° 0 mm 4 mps 759 mmHg 81%
12:00 +1°C° 0 mm 4 mps 760 mmHg 79%
13:00 +2°C° 0 mm 3 mps 760 mmHg 78%
14:00 +3°C° 0 mm 3 mps 760 mmHg 76%
15:00 +3°C° 0 mm 3 mps 760 mmHg 74%
16:00 +2°C° 0 mm 3 mps 760 mmHg 75%
17:00 +2°C° 0 mm 3 mps 760 mmHg 76%
18:00 +2°C° 0 mm 3 mps 760 mmHg 76%
19:00 +3°C° 0 mm 2 mps 761 mmHg 76%
20:00 +3°C° 0 mm 2 mps 761 mmHg 76%
21:00 +3°C° 0 mm 2 mps 761 mmHg 76%
22:00 +2°C° 0 mm 2 mps 761 mmHg 77%
23:00 +2°C° 0 mm 2 mps 761 mmHg 79%

2 November, Monday

Time Temperature Precipitation Wind Pressure Humidity
00:00 +2°C° 0 mm 2 mps 761 mmHg 80%
01:00 +2°C° 0 mm 2 mps 761 mmHg 80%
02:00 +2°C° 0 mm 2 mps 761 mmHg 79%
03:00 +2°C° 0 mm 2 mps 761 mmHg 78%
04:00 +1°C° 0 mm 2 mps 761 mmHg 79%
05:00 -1°C° 0 mm 2 mps 761 mmHg 80%
06:00 -1°C° 0 mm 2 mps 762 mmHg 82%
07:00 -1°C° 0 mm 2 mps 762 mmHg 80%
08:00 -1°C° 0 mm 2 mps 762 mmHg 78%
09:00 0°C° 0 mm 3 mps 762 mmHg 76%
10:00 +1°C° 0 mm 2 mps 762 mmHg 72%
11:00 +2°C° 0 mm 2 mps 762 mmHg 69%
12:00 +3°C° 0 mm 2 mps 762 mmHg 65%
13:00 +3°C° 0 mm 2 mps 763 mmHg 67%
14:00 +2°C° 0 mm 2 mps 763 mmHg 69%
15:00 +2°C° 0 mm 2 mps 763 mmHg 71%
16:00 +1°C° 0 mm 2 mps 763 mmHg 73%
17:00 +1°C° 0 mm 2 mps 763 mmHg 76%
18:00 -1°C° 0 mm 2 mps 763 mmHg 78%
19:00 -1°C° 0 mm 3 mps 763 mmHg 79%
20:00 -1°C° 0 mm 3 mps 764 mmHg 79%
21:00 -2°C° 0 mm 3 mps 764 mmHg 79%
22:00 -2°C° 0 mm 3 mps 764 mmHg 79%
23:00 -2°C° 0 mm 2 mps 764 mmHg 79%

3 November, Tuesday

Time Temperature Precipitation Wind Pressure Humidity
00:00 -2°C° 0 mm 2 mps 764 mmHg 80%
01:00 -2°C° 0 mm 2 mps 764 mmHg 80%
02:00 -2°C° 0 mm 2 mps 764 mmHg 80%
03:00 -2°C° 0 mm 2 mps 765 mmHg 80%
04:00 -2°C° 0 mm 2 mps 765 mmHg 79%
05:00 -2°C° 0 mm 2 mps 765 mmHg 79%
06:00 -2°C° 0 mm 2 mps 765 mmHg 79%
07:00 -1°C° 0 mm 2 mps 765 mmHg 74%
08:00 -1°C° 0 mm 3 mps 765 mmHg 70%
09:00 0°C° 0 mm 3 mps 765 mmHg 66%
10:00 +1°C° 0 mm 3 mps 765 mmHg 62%
11:00 +2°C° 0 mm 3 mps 765 mmHg 58%
12:00 +3°C° 0 mm 3 mps 765 mmHg 55%
13:00 +2°C° 0 mm 3 mps 765 mmHg 57%
14:00 +3°C° 0 mm 2 mps 765 mmHg 59%
15:00 +3°C° 0 mm 2 mps 766 mmHg 61%
16:00 +2°C° 0 mm 2 mps 765 mmHg 63%
17:00 +2°C° 0 mm 2 mps 765 mmHg 64%
18:00 +1°C° 0 mm 2 mps 765 mmHg 66%
19:00 +1°C° 0 mm 2 mps 765 mmHg 66%
20:00 +1°C° 0 mm 2 mps 765 mmHg 67%
21:00 +1°C° 0 mm 2 mps 765 mmHg 67%
22:00 +1°C° 0 mm 2 mps 765 mmHg 69%
23:00 +1°C° 0 mm 2 mps 765 mmHg 71%

4 November, Wednesday

Time Temperature Precipitation Wind Pressure Humidity
00:00 +1°C° 0 mm 2 mps 765 mmHg 73%
01:00 0°C° 0 mm 3 mps 765 mmHg 76%
02:00 0°C° 0 mm 3 mps 765 mmHg 80%
03:00 0°C° 0 mm 3 mps 765 mmHg 83%
04:00 0°C° 0 mm 3 mps 765 mmHg 84%
05:00 0°C° 0 mm 3 mps 765 mmHg 84%
06:00 0°C° 0 mm 3 mps 765 mmHg 85%
07:00 +1°C° 0 mm 3 mps 765 mmHg 82%
08:00 +2°C° 0 mm 3 mps 765 mmHg 79%
09:00 +2°C° 0 mm 3 mps 765 mmHg 76%
10:00 +3°C° 0 mm 3 mps 764 mmHg 74%
11:00 +4°C° 0 mm 3 mps 764 mmHg 73%
12:00 +5°C° 0 mm 3 mps 764 mmHg 72%
13:00 +4°C° 0 mm 3 mps 764 mmHg 75%
14:00 +4°C° 0 mm 3 mps 764 mmHg 79%
15:00 +5°C° 0 mm 2 mps 763 mmHg 82%
16:00 +4°C° 0 mm 2 mps 763 mmHg 84%
17:00 +4°C° 0 mm 2 mps 763 mmHg 85%
18:00 +3°C° 0 mm 2 mps 763 mmHg 87%
19:00 +3°C° 0 mm 2 mps 763 mmHg 87%
20:00 +2°C° 0 mm 3 mps 763 mmHg 88%
21:00 +2°C° 0 mm 3 mps 763 mmHg 88%
22:00 +3°C° 0 mm 3 mps 763 mmHg 88%
23:00 +3°C° 0 mm 3 mps 762 mmHg 87%
Show more